Temp
8 8 8 8 8 8 7 6 6 5 5 4 2 0 0 1 1 1 -0 -1 -2 -2 -2 -2 -2 -1 -2 -2 -2 -2 -2 -2 -3 -3 -3 -3 -3 -4 -5 -5 -6 -6 -8 -8
8 8 8 8 8 8 7 6 6 5 4 4 2 1 -0 1 0 -1 -1 -1 -2 -2 -2 -2 -2 -2 -2 -2 -2 -2 -2 -3 -3 -3 -3 -4 -4 -5 -5 -6 -6 -8 -8 -9
8 8 8 8 8 7 6 6 5 4 4 4 3 2 0 0 0 -1 -3 -2 -2 -2 -2 -2 -2 -2 -2 -2 -2 -2 -3 -3 -3 -3 -4 -4 -4 -5 -5 -5 -6 -8 -9 -9
8 8 8 8 8 7 6 6 5 4 3 3 3 2 -0 -1 -1 -3 -3 -2 -2 -2 -2 -2 -2 -2 -2 -2 -2 -3 -3 -3 -3 -3 -4 -4 -4 -5 -5 -6 -7 -9 -9 -10
8 8 8 8 7 7 7 6 5 5 2 2 3 2 -0 -0 -1 -2 -1 -2 -2 -2 -2 -2 -2 -2 -2 -2 -3 -3 -3 -3 -3 -4 -4 -4 -5 -5 -6 -7 -7 -9 -10 -11
8 8 8 8 8 7 7 6 4 4 2 3 3 3 1 0 -0 -0 -1 -2 -2 -2 -2 -2 -2 -2 -2 -3 -3 -3 -4 -4 -4 -4 -4 -5 -5 -5 -6 -7 -7 -9 -10 -11
8 8 8 8 8 7 7 6 5 4 2 3 4 3 2 2 1 1 -0 -2 -2 -2 -2 -2 -2 -2 -2 -3 -3 -3 -4 -4 -4 -4 -4 -5 -5 -6 -7 -7 -7 -9 -10 -10
8 8 8 7 7 6 6 5 5 4 3 3 4 3 2 2 1 1 -1 -2 -2 -2 -2 -2 -2 -2 -3 -3 -3 -4 -4 -4 -4 -4 -4 -5 -5 -6 -7 -7 -7 -9 -10 -10
8 8 8 7 7 6 6 5 4 3 4 2 5 3 2 1 1 -0 -1 -2 -2 -2 -2 -2 -2 -2 -3 -3 -3 -3 -4 -4 -4 -4 -5 -5 -6 -7 -7 -7 -8 -9 -10 -10
8 7 7 7 6 6 5 5 4 4 -0 1 6 4 2 2 1 -1 -1 -2 -2 -2 -2 -2 -2 -2 -3 -3 -3 -4 -4 -4 -4 -5 -5 -5 -6 -7 -7 -7 -8 -8 -9 -10
8 7 7 7 7 6 5 4 4 3 3 1 -0 2 2 2 0 -0 -1 -2 -2 -2 -2 -2 -2 -2 -2 -3 -3 -4 -4 -4 -5 -5 -5 -5 -6 -7 -7 -8 -8 -8 -9 -10
8 7 6 7 6 6 6 5 4 3 2 2 2 2 3 2 1 0 -1 -2 -1 -2 -2 -1 -2 -2 -3 -3 -3 -4 -4 -4 -5 -5 -5 -5 -6 -7 -7 -8 -8 -8 -9 -10
8 7 6 7 6 6 6 6 4 3 3 2 -0 4 3 1 1 0 -1 -1 -1 -2 -1 -2 -2 -2 -3 -3 -3 -3 -4 -4 -5 -5 -5 -5 -6 -6 -7 -8 -8 -9 -9 -10
8 8 7 7 7 7 6 6 5 3 2 2 3 4 2 1 1 -0 -1 -1 -1 -2 -1 -1 -2 -2 -2 -3 -3 -3 -4 -4 -5 -5 -5 -5 -6 -6 -7 -8 -8 -9 -9 -10
8 8 7 7 7 7 6 7 6 5 4 3 5 4 3 3 1 0 -0 -1 -1 -1 -1 -1 -2 -2 -2 -3 -3 -3 -4 -4 -5 -4 -5 -5 -6 -6 -7 -8 -7 -8 -9 -9
8 7 7 7 7 7 7 7 7 7 6 5 5 5 4 3 2 1 0 -0 -1 -1 -1 -1 -2 -2 -2 -3 -3 -3 -4 -4 -4 -4 -4 -5 -6 -6 -6 -7 -7 -7 -8 -8
7 7 6 6 6 6 8 9 8 7 7 6 6 5 4 4 3 2 1 -0 -0 -1 -1 -1 -2 -2 -2 -3 -3 -3 -3 -4 -4 -4 -4 -5 -5 -6 -6 -6 -7 -7 -7 -8
7 7 6 6 5 2 8 8 8 8 8 7 6 5 4 4 4 3 1 0 0 -0 -1 -1 -1 -2 -2 -2 -2 -3 -3 -4 -4 -4 -4 -5 -5 -6 -6 -6 -7 -7 -7 -7
6 6 6 6 5 7 8 8 8 7 8 7 7 6 5 4 4 3 2 1 0 0 -1 -1 -1 -2 -2 -2 -2 -3 -3 -3 -4 -4 -4 -4 -5 -5 -6 -6 -6 -6 -7 -7
5 5 5 4 5 4 8 8 8 8 8 7 7 6 5 5 5 4 3 1 1 0 -0 -1 -1 -1 -2 -2 -2 -3 -3 -3 -4 -4 -4 -4 -5 -5 -5 -6 -6 -6 -6 -7
7 6 5 4 5 7 8 8 7 7 8 7 7 7 6 5 5 5 3 2 1 1 -0 -0 -1 -1 -2 -2 -2 -3 -3 -3 -3 -4 -4 -4 -4 -5 -5 -5 -6 -6 -6 -6
9 8 7 4 4 7 9 8 7 8 7 7 7 7 6 5 5 5 4 3 1 1 0 -0 -1 -1 -1 -2 -2 -2 -3 -3 -3 -3 -4 -4 -4 -4 -5 -5 -5 -6 -6 -6
8 8 9 8 9 9 8 8 8 8 7 7 7 7 6 6 5 5 5 3 2 1 1 -0 -0 -1 -1 -2 -2 -2 -3 -3 -3 -3 -3 -4 -4 -4 -4 -4 -5 -5 -6 -6
8 9 8 8 9 9 8 8 8 8 7 7 7 7 6 6 5 5 5 4 3 1 1 0 -0 -1 -1 -1 -2 -2 -3 -3 -3 -3 -3 -4 -4 -4 -4 -4 -4 -5 -5 -5
8 8 8 8 9 8 8 8 8 8 7 7 7 7 6 6 6 5 5 5 4 2 1 1 -0 -0 -1 -1 -2 -2 -2 -3 -3 -3 -3 -3 -4 -4 -4 -4 -4 -4 -4 -5
8 9 9 9 8 8 8 8 8 8 7 7 7 7 6 6 6 5 5 5 5 4 2 1 0 -0 -0 -1 -1 -2 -2 -2 -2 -3 -3 -3 -4 -4 -4 -4 -4 -4 -5 -5
Height
3165 3165 3163 3161 3160 3160 3159 3158 3157 3153 3151 3148 3145 3145 3138 3138 3137 3134 3133 3127 3122 3118 3114 3110 3107 3104 3101 3097 3092 3088 3084 3080 3075 3068 3062 3057 3049 3041 3033 3024 3015 3006 2998 2992
3165 3163 3162 3161 3160 3158 3157 3157 3154 3151 3147 3146 3143 3142 3137 3136 3135 3133 3129 3126 3120 3117 3113 3109 3107 3103 3100 3095 3091 3087 3083 3078 3071 3066 3060 3054 3046 3038 3029 3020 3011 3001 2995 2987
3162 3163 3162 3160 3159 3157 3155 3154 3152 3150 3144 3143 3141 3138 3135 3134 3133 3131 3127 3123 3119 3115 3111 3108 3105 3102 3098 3094 3090 3086 3081 3075 3070 3065 3060 3054 3047 3039 3027 3017 3008 2998 2990 2983
3162 3162 3161 3160 3157 3156 3154 3152 3148 3145 3145 3145 3142 3141 3135 3133 3132 3129 3125 3121 3118 3115 3111 3107 3104 3100 3097 3093 3089 3084 3080 3074 3070 3064 3059 3050 3041 3032 3022 3012 3003 2996 2988 2981
3162 3161 3160 3158 3157 3155 3155 3150 3146 3144 3144 3143 3140 3141 3133 3133 3132 3129 3125 3120 3115 3112 3109 3106 3103 3100 3096 3092 3088 3083 3079 3073 3068 3063 3055 3048 3040 3031 3021 3011 3002 2994 2986 2979
3161 3160 3159 3158 3156 3154 3152 3148 3144 3144 3144 3143 3138 3140 3134 3132 3132 3130 3125 3117 3114 3110 3107 3105 3103 3099 3096 3091 3087 3082 3077 3072 3067 3061 3054 3047 3040 3030 3019 3010 3001 2993 2984 2978
3160 3159 3158 3157 3155 3154 3151 3148 3148 3146 3145 3140 3138 3137 3131 3130 3130 3129 3122 3115 3113 3109 3107 3104 3102 3099 3095 3090 3086 3081 3076 3071 3066 3060 3054 3047 3039 3030 3020 3010 3001 2991 2984 2978
3160 3157 3157 3156 3156 3154 3153 3152 3151 3152 3147 3141 3136 3134 3129 3129 3128 3124 3117 3114 3111 3108 3106 3104 3100 3097 3093 3089 3085 3081 3076 3071 3065 3059 3054 3047 3039 3030 3021 3011 3002 2991 2985 2979
3159 3157 3155 3155 3154 3155 3152 3152 3151 3149 3146 3144 3133 3131 3129 3127 3125 3121 3116 3112 3110 3108 3105 3103 3099 3096 3092 3088 3085 3081 3076 3070 3064 3059 3053 3046 3039 3030 3022 3013 3003 2994 2987 2981
3157 3156 3154 3154 3154 3153 3152 3152 3150 3149 3150 3147 3133 3130 3125 3125 3124 3120 3114 3111 3109 3106 3104 3101 3099 3095 3092 3089 3085 3081 3075 3070 3064 3058 3052 3045 3038 3032 3024 3014 3005 2996 2988 2982
3155 3155 3155 3153 3152 3151 3151 3149 3149 3149 3149 3148 3144 3129 3124 3124 3122 3119 3113 3110 3108 3104 3103 3101 3098 3095 3092 3089 3085 3080 3076 3070 3064 3057 3051 3045 3038 3032 3024 3015 3007 2999 2990 2983
3154 3153 3153 3151 3151 3150 3149 3148 3147 3147 3148 3146 3143 3130 3124 3123 3120 3117 3112 3109 3106 3104 3102 3100 3098 3095 3092 3089 3085 3080 3075 3070 3064 3057 3051 3044 3038 3033 3025 3017 3010 3002 2992 2985
3152 3151 3152 3149 3150 3148 3146 3146 3145 3145 3144 3141 3141 3128 3123 3120 3116 3113 3110 3107 3105 3104 3102 3100 3098 3095 3092 3089 3085 3080 3076 3070 3064 3058 3051 3045 3040 3033 3026 3019 3012 3005 2996 2988
3150 3149 3149 3149 3146 3146 3144 3143 3142 3142 3141 3138 3131 3127 3123 3118 3114 3110 3107 3105 3104 3102 3100 3099 3097 3095 3092 3089 3085 3081 3076 3071 3065 3059 3052 3047 3041 3035 3028 3022 3015 3008 3000 2992
3148 3147 3146 3145 3143 3142 3141 3139 3138 3137 3137 3134 3128 3125 3124 3120 3116 3110 3105 3103 3102 3100 3099 3098 3096 3094 3092 3090 3086 3082 3077 3072 3066 3060 3054 3049 3044 3037 3031 3025 3018 3012 3005 2997
3145 3145 3143 3141 3139 3138 3136 3136 3134 3133 3132 3128 3126 3122 3121 3117 3112 3107 3103 3102 3101 3100 3098 3097 3095 3094 3092 3090 3087 3083 3078 3073 3068 3062 3057 3052 3046 3040 3034 3028 3023 3016 3009 3002
3143 3142 3141 3138 3137 3135 3132 3130 3131 3129 3128 3126 3123 3121 3117 3114 3109 3105 3101 3100 3100 3098 3097 3096 3096 3094 3092 3090 3087 3083 3079 3074 3070 3065 3060 3055 3049 3044 3038 3032 3028 3020 3013 3007
3138 3139 3140 3137 3136 3135 3129 3128 3128 3126 3125 3123 3120 3118 3115 3111 3106 3103 3099 3098 3098 3097 3096 3096 3095 3094 3092 3090 3087 3084 3081 3077 3072 3067 3063 3059 3053 3047 3042 3037 3032 3024 3018 3011
3133 3135 3136 3135 3133 3129 3125 3124 3126 3124 3123 3121 3118 3115 3113 3110 3105 3102 3098 3097 3097 3097 3095 3095 3094 3092 3091 3090 3088 3085 3082 3079 3075 3070 3066 3061 3056 3051 3046 3041 3036 3029 3023 3017
3128 3130 3133 3131 3131 3126 3122 3123 3123 3122 3120 3118 3115 3113 3111 3108 3104 3101 3096 3095 3095 3095 3094 3094 3094 3092 3091 3090 3088 3085 3083 3080 3076 3072 3068 3063 3059 3054 3049 3044 3039 3033 3027 3021
3123 3124 3125 3127 3127 3121 3119 3120 3120 3121 3122 3115 3113 3110 3109 3107 3104 3100 3096 3094 3093 3094 3093 3093 3093 3092 3092 3089 3087 3085 3082 3080 3077 3074 3070 3066 3062 3057 3051 3046 3041 3036 3031 3026
3119 3120 3120 3122 3123 3118 3115 3117 3119 3118 3115 3113 3110 3109 3107 3106 3102 3098 3095 3093 3092 3092 3092 3091 3092 3091 3090 3088 3087 3084 3082 3080 3078 3075 3072 3069 3065 3060 3056 3050 3045 3040 3034 3030
3114 3114 3114 3116 3113 3113 3113 3113 3114 3113 3112 3110 3108 3107 3105 3104 3101 3098 3095 3092 3090 3090 3090 3090 3090 3089 3089 3087 3085 3084 3082 3081 3078 3076 3072 3069 3066 3063 3059 3054 3049 3044 3039 3034
3107 3108 3108 3110 3110 3110 3110 3110 3110 3109 3109 3108 3106 3105 3104 3102 3100 3097 3094 3091 3089 3088 3087 3088 3088 3088 3087 3085 3084 3083 3082 3081 3079 3076 3073 3070 3067 3063 3060 3056 3052 3047 3043 3037
3103 3103 3104 3104 3106 3106 3106 3106 3106 3105 3105 3105 3104 3103 3101 3100 3098 3096 3093 3090 3087 3086 3085 3085 3086 3086 3085 3084 3083 3081 3081 3080 3079 3076 3074 3071 3068 3065 3062 3058 3054 3050 3045 3040
3096 3098 3099 3100 3102 3102 3103 3102 3102 3101 3102 3101 3101 3100 3099 3097 3096 3095 3092 3089 3085 3083 3082 3082 3082 3083 3083 3082 3082 3080 3079 3078 3077 3075 3073 3071 3068 3066 3063 3059 3055 3051 3046 3042
Wind_Speed
5 0 8 7 5 5 6 4 7 15 16 14 10 10 24 18 14 13 18 32 26 22 23 21 19 20 21 23 25 26 26 27 29 29 30 32 36 39 39 37 40 41 37 33
3 6 7 7 5 6 4 4 10 16 17 13 6 14 21 16 11 14 22 33 26 21 22 19 18 20 21 23 24 24 25 27 29 28 30 34 38 41 40 39 41 37 33 32
9 8 7 7 6 8 9 11 16 12 18 10 11 10 17 13 11 15 22 32 23 21 20 17 17 20 21 23 23 23 25 27 26 26 29 33 36 38 40 39 41 35 35 35
4 5 6 7 7 7 5 15 18 8 6 5 9 5 12 12 11 11 23 33 19 19 17 16 17 19 21 22 22 22 25 25 24 26 29 35 40 43 43 42 40 33 33 30
5 4 7 6 7 7 9 17 8 6 6 10 12 5 7 10 7 13 28 29 16 20 17 16 17 19 20 21 21 22 24 24 24 26 31 36 40 42 42 41 39 32 31 23
5 5 6 7 8 7 13 17 15 10 2 5 5 2 7 5 6 18 30 22 16 20 16 15 17 18 19 20 20 22 24 23 24 27 31 35 39 42 42 41 38 32 26 26
7 5 7 6 8 7 11 13 4 3 3 2 5 6 9 11 12 25 32 18 15 19 17 14 15 17 19 20 20 23 24 23 24 27 30 33 37 41 41 40 39 33 27 28
4 8 4 7 6 7 5 8 2 3 4 5 12 4 7 10 11 31 33 19 15 17 15 14 15 17 19 20 21 23 25 25 25 27 29 32 36 39 38 39 37 32 27 27
2 6 6 7 6 6 5 4 5 5 5 5 5 7 9 7 17 30 29 20 15 16 13 13 15 18 19 20 21 24 25 27 26 28 29 31 34 36 36 38 38 33 27 24
3 6 6 6 6 4 4 6 2 3 3 5 8 1 6 11 18 29 27 16 15 16 13 13 15 17 18 19 20 24 26 27 29 29 29 30 32 33 34 37 39 35 30 23
4 4 5 9 3 6 6 4 2 4 3 2 4 5 13 17 23 28 27 13 14 14 12 12 14 17 18 18 20 24 25 27 30 31 28 28 31 33 34 37 39 37 33 28
3 4 5 11 10 8 7 8 6 3 2 5 5 10 15 22 29 27 26 12 13 13 11 11 14 16 17 17 20 23 26 28 31 32 28 28 31 31 32 34 36 38 37 33
4 3 3 5 3 4 7 9 8 8 8 9 3 8 21 28 32 30 26 11 11 12 10 11 13 16 16 17 20 23 25 28 31 31 28 29 30 29 31 33 35 37 38 35
6 6 7 6 12 13 15 13 11 9 6 6 18 18 21 28 32 29 26 11 11 11 9 11 13 15 16 17 19 23 25 27 30 30 28 29 29 30 31 32 33 36 37 37
7 8 10 11 16 17 14 14 12 14 11 10 13 21 22 21 21 24 21 8 10 10 8 9 12 14 15 16 19 22 24 27 30 28 27 28 28 30 32 32 32 33 35 36
10 8 11 14 13 10 14 14 14 13 12 17 17 20 16 19 21 22 17 6 8 9 7 8 10 12 13 14 18 21 23 26 28 27 26 26 28 30 33 33 32 32 34 35
10 9 8 6 10 15 13 6 6 10 11 12 16 17 18 19 20 21 15 6 7 8 7 7 9 11 11 13 17 20 21 24 26 26 25 25 27 29 31 33 32 34 34 33
13 12 8 7 10 3 2 3 7 11 10 8 14 14 15 17 20 20 13 5 5 7 5 5 7 9 10 12 16 19 20 22 24 24 23 24 26 28 30 30 30 32 34 34
18 16 8 5 6 12 16 7 6 11 11 10 13 14 12 15 18 16 12 5 5 6 4 3 5 7 8 10 13 17 18 21 23 23 22 24 26 27 28 29 29 30 31 31
19 18 14 8 4 5 3 5 5 10 4 12 14 14 13 14 17 19 14 6 4 6 4 4 4 6 7 7 11 14 16 17 20 21 22 23 25 27 28 29 30 30 30 30
15 17 20 19 10 9 12 10 7 4 7 12 14 14 13 13 15 18 15 7 4 5 5 3 3 4 5 5 8 11 13 15 17 19 21 22 24 26 27 28 28 29 29 29
11 9 11 13 10 9 5 5 7 9 11 12 13 14 13 12 14 16 15 10 4 4 6 4 2 2 3 4 5 8 11 13 14 16 18 21 23 25 26 27 27 27 28 28
18 20 8 11 6 6 9 13 11 11 11 12 13 13 13 12 13 14 16 12 7 4 6 6 4 2 2 3 3 5 8 11 12 13 15 17 20 23 25 26 26 26 26 27
20 17 20 16 13 13 10 12 13 13 11 12 13 12 12 12 12 12 15 15 9 4 5 7 6 4 3 3 2 3 5 8 11 12 13 15 17 19 21 23 25 26 26 27
24 20 21 21 17 15 16 15 14 12 11 11 12 11 11 11 11 11 12 15 12 7 4 6 7 7 5 5 4 3 2 5 8 11 12 14 15 17 18 20 22 24 25 27
26 23 20 18 15 16 14 15 16 15 12 11 12 11 11 11 11 10 10 12 14 9 6 5 8 8 8 7 6 5 3 3 5 7 10 12 13 15 17 18 19 20 22 24
Wind_Direction
329 162 233 311 328 301 292 329 305 278 297 302 304 270 285 311 326 335 336 346 345 342 340 342 348 350 349 350 351 351 352 352 352 354 357 355 354 352 348 342 339 335 333 327
31 262 320 320 326 337 349 329 304 297 300 310 273 283 271 302 320 328 338 346 342 338 341 343 346 350 350 352 352 353 354 354 355 1 0 359 358 354 350 346 343 339 337 335
221 277 312 326 328 353 303 302 314 284 296 314 315 289 258 299 313 329 329 339 336 335 340 344 349 352 352 352 353 355 356 355 360 1 1 1 358 356 353 351 347 341 336 333
274 272 316 332 341 332 323 319 317 296 293 330 313 303 245 282 321 323 315 336 332 335 341 348 351 354 351 352 354 357 356 356 0 359 360 1 0 360 357 354 351 344 340 334
276 301 332 333 331 320 335 335 349 319 282 312 265 261 214 255 318 278 328 332 332 340 347 352 352 353 351 353 356 358 356 357 358 359 1 2 2 1 360 357 354 351 348 357
281 288 320 324 335 338 342 354 339 332 316 262 198 267 259 255 253 330 338 336 337 344 349 352 351 350 352 355 358 359 357 356 357 359 1 0 2 2 1 1 357 358 0 4
315 289 299 324 337 350 2 5 287 302 238 246 233 288 260 258 298 338 345 341 340 348 346 349 351 349 355 358 360 0 357 354 355 358 357 357 3 4 2 1 0 4 6 4
285 290 308 332 340 336 350 29 13 280 321 314 290 250 264 292 310 345 346 347 343 347 345 345 351 352 0 1 1 359 357 354 354 354 355 357 2 4 3 4 4 7 5 7
235 270 291 309 323 352 348 349 322 278 289 292 240 257 285 285 327 346 343 342 342 346 348 348 353 356 1 1 0 358 358 356 353 353 355 358 2 3 6 8 10 9 6 9
281 274 291 303 307 297 337 328 332 359 348 307 293 349 280 311 336 342 342 338 340 346 348 349 354 359 2 1 1 360 0 358 358 354 356 359 1 1 7 11 12 11 14 13
288 255 290 310 277 296 317 336 316 311 232 245 310 278 293 322 333 341 343 337 339 344 347 348 354 0 4 1 2 2 2 2 4 1 0 1 2 1 10 13 14 12 17 18
278 271 259 281 291 288 289 278 269 230 221 246 255 277 305 325 329 343 345 334 338 345 345 348 355 3 7 2 3 4 5 6 7 4 7 6 7 4 11 15 16 14 21 19
299 237 268 280 274 297 302 308 281 263 266 249 214 280 317 321 329 340 343 331 335 346 346 349 357 4 8 4 4 6 7 10 9 8 14 13 11 13 14 15 18 19 23 25
280 258 245 246 278 293 300 299 282 258 248 267 274 296 309 314 321 329 332 328 334 347 347 354 359 5 9 4 6 8 9 12 13 13 20 20 19 21 21 18 19 23 26 29
261 274 280 275 282 290 286 291 280 271 267 263 294 298 306 313 317 324 331 320 333 342 346 356 2 7 10 4 7 8 11 15 16 18 25 27 29 29 28 24 24 26 27 30
255 273 292 301 295 293 289 281 271 286 281 287 300 315 326 329 329 333 337 316 330 340 343 356 4 9 13 7 9 9 13 18 18 21 28 31 34 34 34 32 27 30 32 31
257 268 293 280 298 306 298 209 263 300 311 307 313 326 325 331 335 340 340 306 330 336 339 357 3 8 14 13 12 12 14 21 21 25 30 32 35 35 35 35 30 34 34 32
254 259 263 272 297 282 261 265 285 315 322 316 324 328 325 335 344 345 339 301 322 331 328 348 3 11 15 15 15 16 15 20 24 27 30 31 33 34 33 31 29 32 34 35
247 248 243 250 230 284 287 254 265 314 326 338 337 330 334 340 346 350 347 308 323 334 314 335 1 11 19 17 17 19 17 21 24 26 30 32 32 31 30 29 27 28 31 34
233 238 225 215 236 232 241 243 299 316 276 340 339 337 341 343 348 355 355 327 315 331 306 322 352 5 15 19 21 23 19 21 26 27 30 30 31 31 29 29 28 27 26 26
208 220 226 231 239 263 257 252 278 288 310 329 335 337 341 344 354 358 355 338 299 319 289 290 334 358 4 14 23 23 23 22 23 29 31 29 28 27 28 28 29 29 29 28
227 220 221 213 223 262 207 217 266 302 310 316 329 333 336 343 351 2 358 346 304 310 289 273 265 347 350 358 21 21 23 22 19 26 31 28 24 24 24 26 29 30 31 30
232 231 229 220 238 246 277 293 290 297 300 306 320 328 333 337 347 1 2 356 331 293 284 272 245 267 321 326 354 15 20 21 21 16 26 26 26 24 22 22 25 28 30 31
238 237 238 250 261 268 272 285 290 290 287 297 310 320 327 330 339 354 4 4 348 308 276 264 251 246 267 283 301 353 15 18 22 12 20 21 21 22 21 21 22 24 26 28
243 245 249 257 266 271 272 284 287 285 277 287 299 310 317 324 329 343 2 7 1 339 292 264 252 242 253 263 274 287 350 14 19 12 16 16 16 15 16 18 18 19 22 23
244 248 251 273 272 273 283 276 283 279 272 279 290 300 307 316 321 331 349 7 7 0 328 278 250 243 247 255 263 272 289 330 360 6 13 16 14 13 12 12 13 16 19 19